Temperature
13 14 14 14 17 18 19 20 19 19 19 18 18 19 21 21 21 20 16 16 16 16 16 16 16 16 16 16 16 16 16 16 16 16 16 16 16 16 16 16 16 16 16 15 15 16 16 16 16
13 13 14 15 18 19 19 19 19 19 18 17 17 18 19 19 17 17 16 16 16 16 15 16 16 16 16 16 16 16 16 16 16 16 16 16 16 16 16 16 16 16 16 16 16 16 15 16 16
13 13 14 17 18 19 19 19 18 17 16 16 17 17 18 17 16 16 15 15 15 15 15 15 16 16 16 16 16 16 16 16 16 16 16 16 16 16 16 16 16 16 16 16 16 16 15 16 16
12 13 14 17 17 18 18 18 17 17 16 16 16 17 16 15 15 15 15 15 15 15 15 15 15 16 16 16 16 16 16 16 16 16 16 16 16 16 16 16 16 16 16 16 16 15 15 15 15
12 14 16 16 17 17 17 16 16 17 17 16 16 17 16 14 14 15 15 15 15 15 15 15 15 15 15 16 16 16 16 16 16 16 16 16 16 16 16 16 16 16 15 15 15 15 15 15 15
12 15 16 16 16 16 16 15 15 16 16 16 16 16 15 14 14 14 14 14 14 14 14 14 15 15 15 15 15 15 15 15 15 15 15 16 16 16 16 16 15 15 15 15 15 15 15 15 15
13 15 16 16 16 16 16 15 15 16 16 15 15 16 15 14 14 14 14 14 14 14 14 14 14 15 15 15 15 15 15 15 15 15 15 15 15 15 15 15 15 15 15 15 15 15 15 15 15
12 14 15 15 15 16 15 14 14 15 15 14 14 16 15 14 13 13 14 14 14 14 14 14 14 14 15 15 15 15 15 15 15 15 15 15 15 15 15 15 15 15 15 15 15 15 15 15 15
11 14 15 15 15 15 14 14 14 13 14 13 13 14 13 13 13 13 13 13 14 14 14 14 14 14 14 14 14 14 14 14 14 14 14 14 15 15 15 15 15 15 15 15 14 15 15 15 15
12 14 14 14 15 15 14 14 13 14 14 14 13 13 13 13 13 13 13 13 13 13 14 14 14 14 14 14 14 14 14 14 14 14 14 14 14 14 14 14 14 14 14 14 14 14 14 14 14
12 14 14 13 13 13 13 13 13 14 14 14 14 13 12 12 12 12 12 12 13 13 13 13 13 14 14 14 14 14 14 14 14 14 14 14 14 14 14 14 14 14 14 14 14 14 14 14 14
12 12 12 12 11 12 13 13 13 13 13 13 13 12 12 12 12 12 12 12 12 12 13 13 13 13 14 14 14 14 13 13 14 14 14 14 13 14 13 14 14 14 13 13 13 13 13 13 13
12 12 11 11 11 11 12 12 12 13 12 12 12 12 12 12 12 12 12 12 12 12 13 13 13 13 14 13 14 13 13 13 13 13 13 13 13 13 13 13 13 13 13 13 13 13 13 13 13
12 12 12 11 12 12 12 12 12 13 12 12 12 12 12 12 12 12 12 12 12 12 12 12 13 13 13 13 13 13 13 13 13 13 13 13 13 13 13 13 13 13 13 13 13 13 13 13 13
11 12 13 12 12 12 12 13 13 12 12 12 12 11 11 11 11 12 12 12 12 12 12 12 12 12 13 13 13 13 13 13 12 12 12 12 13 13 13 13 13 13 13 13 13 12 12 12 12
12 13 13 13 12 12 13 14 14 11 11 12 12 11 11 11 11 11 11 12 12 12 12 12 12 12 12 12 13 12 12 12 12 12 12 12 12 12 12 12 12 12 12 12 12 12 12 12 12
13 13 13 13 12 12 13 14 13 11 11 12 12 11 11 11 11 11 11 11 11 11 11 12 12 12 12 12 12 12 12 12 12 12 12 12 12 12 12 12 12 12 12 12 12 12 12 12 12
13 13 13 13 12 12 12 13 13 12 11 12 12 11 11 11 11 11 11 11 11 11 11 11 11 11 11 11 11 11 11 11 11 11 11 12 12 12 12 12 12 12 12 12 12 12 11 11 11
12 13 13 13 11 12 12 12 13 12 12 12 11 11 11 10 10 11 11 11 11 11 11 11 11 11 11 11 11 11 11 11 11 11 11 11 11 11 11 11 11 11 11 11 11 11 11 11 11
12 12 12 12 11 11 12 12 13 12 12 11 11 11 10 10 10 10 11 11 11 11 11 11 11 11 11 11 11 11 11 11 11 11 11 11 11 11 11 11 11 11 11 11 11 10 10 10 10
12 12 12 11 11 11 12 14 14 13 11 10 10 10 10 10 10 10 10 11 11 11 11 10 11 11 10 10 10 10 10 10 10 10 10 11 11 11 11 11 11 11 11 10 10 10 10 10 10
12 11 10 10 12 13 12 13 14 13 12 12 11 10 10 9 9 10 10 10 10 10 10 10 10 10 10 10 10 10 10 10 10 10 10 10 10 10 10 10 10 10 10 10 10 10 10 9 9
10 9 10 10 11 12 12 12 14 12 12 12 12 10 10 9 9 9 9 10 10 10 10 10 10 10 10 10 10 10 10 10 10 10 10 10 10 10 10 10 10 10 10 10 10 10 9 9 9
9 10 10 10 11 12 12 12 14 13 13 13 12 10 9 9 9 9 9 10 10 10 10 10 10 10 10 10 10 10 10 9 10 9 9 10 10 9 10 9 9 9 9 9 9 9 9 9 9
10 11 12 12 12 13 10 11 13 13 12 11 11 10 9 9 8 9 9 9 9 9 10 10 10 10 10 10 10 10 9 9 9 9 9 9 9 9 9 9 9 9 9 9 9 9 9 8 8
10 11 11 12 13 13 10 11 13 11 10 9 9 9 8 8 8 8 9 9 9 9 9 10 10 10 10 10 10 9 9 9 9 9 9 9 9 9 9 9 9 9 9 8 8 8 8 8 8
10 10 10 10 10 11 13 12 12 11 10 9 9 8 8 8 8 8 9 9 9 9 9 9 9 9 9 9 9 9 9 9 9 9 9 9 9 9 8 8 8 8 8 8 8 8 7 7 7
9 9 9 9 10 12 13 12 13 11 11 10 9 9 8 8 7 8 8 9 9 9 9 9 9 9 9 9 9 9 9 9 9 9 9 8 8 8 8 8 8 8 8 8 8 7 7 7 7
8 8 9 9 10 11 12 13 12 11 10 10 9 8 8 7 7 8 8 8 8 8 8 9 9 9 9 9 9 9 8 8 8 8 8 8 8 8 8 8 8 8 8 7 7 7 7 7 7
8 8 8 9 9 8 10 12 11 10 9 9 9 8 7 7 7 7 7 8 8 8 8 8 8 8 8 8 8 8 8 8 8 8 8 8 8 8 7 7 7 7 7 7 7 7 6 6 6
Wind_Speed
5 4 2 2 4 5 10 8 7 6 6 4 3 5 6 7 6 2 3 4 6 8 10 12 10 10 10 11 11 13 13 13 13 13 13 12 12 12 11 11 10 10 10 10 9 9 9 9 9
3 2 2 3 5 8 9 8 8 7 4 2 3 4 5 5 3 1 2 4 6 7 9 11 11 10 10 10 11 12 13 13 13 13 12 12 11 11 11 10 10 10 9 9 9 9 8 8 9
1 1 2 3 6 9 7 5 5 4 4 4 4 4 4 3 3 1 1 4 6 7 8 10 11 11 11 11 10 11 12 12 12 12 12 11 11 10 10 9 9 9 9 9 8 8 8 8 8
2 2 2 4 8 7 6 3 4 5 5 5 5 4 3 2 1 1 1 4 6 7 8 10 10 11 11 11 11 11 12 12 12 12 12 11 11 10 10 9 9 9 8 8 8 7 7 7 7
1 3 4 5 8 6 5 4 5 7 7 6 6 5 4 3 3 2 2 5 6 6 6 9 10 10 10 11 11 11 11 11 11 11 11 11 11 10 10 9 8 8 8 8 7 7 7 6 6
2 3 5 7 7 5 5 4 5 7 6 6 7 7 4 3 3 3 3 4 5 5 6 8 9 9 9 10 10 10 10 10 10 9 9 11 10 10 9 9 8 8 7 7 7 7 7 6 6
2 3 5 6 6 5 4 3 6 6 7 6 5 6 4 4 2 3 3 4 5 5 6 7 9 10 9 10 10 9 9 9 9 8 8 9 10 10 10 9 8 7 7 7 6 6 6 6 5
1 2 4 5 6 5 3 3 5 7 6 3 4 6 5 4 1 2 3 4 5 5 5 6 7 8 9 9 10 9 9 9 9 8 8 7 9 10 10 9 8 7 7 6 6 6 6 5 5
2 3 5 5 5 4 3 4 4 4 4 4 5 5 4 2 2 3 4 5 5 5 5 5 6 7 8 9 9 9 9 8 8 8 8 7 7 9 8 8 7 7 6 6 6 5 5 5 6
2 3 4 3 4 4 5 5 4 4 5 5 5 4 3 4 4 5 5 6 7 7 6 5 5 6 7 7 8 8 8 8 7 6 7 6 5 6 7 8 7 7 7 7 6 5 6 6 5
1 3 2 3 4 4 5 4 4 4 5 5 4 3 4 4 4 5 6 7 6 6 6 5 5 6 7 6 6 6 6 6 7 6 6 5 4 5 6 6 6 6 7 6 6 6 5 5 4
1 2 3 3 4 4 4 3 3 5 5 4 2 2 4 5 6 6 6 6 6 5 5 5 5 6 6 7 6 5 5 5 5 5 5 4 3 3 4 3 5 5 5 4 5 4 4 5 5
3 2 3 3 5 5 4 4 4 6 5 3 1 3 4 5 5 5 5 6 5 5 5 5 5 5 5 6 5 5 5 5 5 5 5 4 2 2 3 3 3 3 3 4 4 4 4 4 5
2 3 3 3 4 3 3 4 4 5 2 1 1 2 2 3 4 4 3 4 5 4 4 4 4 4 5 5 5 5 5 5 5 4 4 4 2 2 3 3 2 2 3 3 3 4 4 4 4
1 2 1 1 2 1 2 4 5 4 2 2 2 2 2 3 3 4 4 3 3 3 3 3 3 3 4 4 4 4 4 4 4 4 5 4 3 2 2 2 2 2 2 2 3 3 4 3 4
2 2 1 1 2 2 3 4 4 3 3 3 3 2 2 2 3 4 3 2 2 2 3 3 3 3 3 3 3 3 4 4 3 3 3 3 2 2 2 2 2 2 2 2 2 2 3 3 4
1 2 3 2 2 2 3 5 4 4 3 3 3 2 1 0 1 2 3 3 2 2 3 3 3 3 3 3 3 3 3 4 3 3 2 3 2 3 2 2 2 2 2 2 2 2 2 3 4
2 3 3 3 3 3 4 6 6 5 4 4 3 2 1 1 1 0 1 2 3 3 3 3 3 3 3 3 3 3 3 3 2 2 2 3 2 3 3 2 2 2 2 2 2 2 2 3 3
3 3 4 4 4 4 5 7 7 5 4 4 4 3 2 2 1 1 1 2 3 3 3 3 3 2 3 2 2 2 2 2 2 2 2 2 1 2 2 2 2 2 2 2 2 2 2 2 2
2 2 3 3 4 3 5 7 7 5 4 3 3 3 3 2 1 1 1 1 2 2 2 2 2 2 2 2 2 2 1 1 1 1 1 1 1 2 2 2 2 2 2 2 2 2 2 2 2
1 3 3 4 5 2 5 5 3 1 1 2 2 2 2 2 3 2 1 2 2 2 3 2 3 3 3 3 3 3 2 1 2 2 1 0 1 2 2 2 2 2 2 2 2 2 3 3 2
3 2 3 4 4 2 2 4 4 3 3 2 1 1 2 2 2 2 2 2 2 2 1 1 3 4 4 4 3 4 3 2 2 1 1 1 1 1 2 2 2 2 2 2 3 3 3 4 3
2 3 3 4 3 3 3 4 4 2 4 4 3 2 2 2 2 2 2 2 1 0 1 1 3 3 4 4 4 4 3 2 1 1 1 1 1 2 2 3 2 2 2 2 3 3 3 3 4
1 1 1 2 3 4 4 5 5 3 5 4 3 2 2 2 2 2 2 2 2 1 1 1 3 3 3 4 4 5 4 3 2 2 1 1 1 1 2 2 2 2 2 3 3 3 4 4 5
1 1 1 2 3 3 1 5 6 2 2 3 3 2 2 2 3 2 2 2 2 1 1 1 2 3 3 4 4 4 4 4 4 3 3 2 2 1 2 2 2 2 3 3 4 4 4 5 5
2 2 2 3 4 3 2 6 3 1 1 2 2 2 1 2 2 2 2 2 1 1 1 1 2 2 3 3 3 3 3 3 3 4 3 3 2 2 3 3 3 3 3 4 4 4 4 5 5
2 2 2 3 4 6 5 5 4 1 0 1 1 1 1 2 1 1 1 1 1 1 1 1 2 2 2 2 2 3 3 3 4 3 3 3 3 3 4 4 4 3 4 4 4 4 5 5 5
1 2 2 3 3 6 7 6 4 2 1 1 1 2 2 2 2 2 1 1 0 0 0 1 1 1 1 1 2 2 3 3 3 3 4 4 4 3 3 4 4 4 4 4 4 4 5 5 5
3 3 3 3 4 5 6 4 1 2 2 3 3 2 2 3 3 3 2 2 1 0 0 1 1 1 1 1 2 2 2 2 3 3 4 4 4 4 4 4 4 4 4 5 5 5 5 6 6
5 5 5 4 4 4 6 6 2 2 2 3 3 2 2 2 2 2 2 2 1 1 1 1 1 1 1 1 2 2 2 2 3 4 4 4 4 4 4 4 5 5 5 5 6 6 6 7 7
Wind_Direction
327 325 291 220 206 218 228 222 224 209 209 216 228 231 226 223 227 201 77 137 146 151 155 154 148 150 153 156 158 157 154 152 151 150 150 151 150 149 146 141 138 138 134 134 134 133 133 132 132
328 312 221 217 223 226 226 218 221 217 212 210 226 231 228 230 246 114 124 136 148 154 157 156 147 151 152 155 159 160 157 155 153 151 151 152 152 151 148 145 140 136 134 133 132 134 136 137 137
306 291 210 205 224 233 228 217 224 223 227 232 228 237 238 222 194 173 113 154 154 155 158 153 152 153 149 149 151 162 162 159 157 156 155 155 156 154 151 146 141 137 134 133 131 135 138 141 143
229 191 203 222 227 239 251 239 230 222 227 229 228 223 213 243 265 277 159 175 164 159 158 154 155 154 152 152 151 158 163 163 161 160 159 158 158 157 151 146 143 140 139 139 138 136 138 141 147
223 203 200 219 231 236 255 265 233 232 230 227 228 233 232 251 265 260 199 179 170 161 155 157 155 155 154 154 152 155 159 158 160 164 164 163 161 159 153 149 146 146 148 147 147 148 149 149 151
184 200 211 223 229 240 244 246 238 239 241 243 235 235 246 240 233 234 208 186 172 160 153 155 150 147 150 153 151 155 160 156 156 161 167 167 162 158 155 154 153 154 155 155 156 160 161 160 161
207 196 215 223 237 246 241 245 246 243 241 243 240 232 223 210 251 247 217 187 171 161 159 160 162 157 149 145 146 153 160 157 156 157 156 162 158 157 157 158 159 161 163 161 161 164 167 169 171
231 200 205 220 231 239 229 260 265 259 254 254 242 234 226 213 263 243 204 185 173 168 166 164 164 166 162 154 143 146 148 150 152 151 150 151 160 160 161 163 161 161 163 164 163 166 170 175 181
220 214 216 220 230 241 243 265 281 277 252 249 245 258 265 211 224 207 196 190 182 179 178 173 167 168 164 160 154 152 147 144 151 153 150 161 173 171 171 166 160 162 162 163 164 165 170 181 185
222 225 224 236 257 265 260 266 272 252 253 256 249 249 230 206 204 205 206 205 197 191 190 181 172 172 164 158 161 161 163 157 159 160 166 172 173 175 174 162 167 174 175 175 170 170 179 203 202
224 241 249 259 273 271 260 268 266 254 257 261 255 229 196 205 214 219 220 216 210 198 192 186 181 176 168 159 161 161 166 164 161 162 166 171 170 175 175 171 175 184 189 191 179 187 200 214 217
209 246 247 260 284 275 263 260 274 268 277 306 282 209 197 210 218 218 222 218 211 199 194 190 187 181 174 165 160 165 167 167 161 165 165 164 161 175 174 177 183 190 198 201 203 214 215 224 226
216 233 251 267 282 277 267 252 264 280 289 288 211 193 199 210 215 218 216 213 209 199 195 193 187 182 173 167 161 168 173 172 163 165 165 161 169 182 181 183 185 194 202 206 216 226 226 232 234
230 254 266 275 270 259 267 270 263 284 308 226 179 204 210 219 210 212 210 211 205 203 196 190 186 181 168 172 165 168 172 167 160 160 165 165 174 194 189 192 197 203 211 219 225 235 239 241 243
211 240 266 284 283 286 259 259 259 293 286 259 242 236 219 231 216 213 208 199 200 191 181 167 168 170 166 164 161 162 165 160 155 156 163 161 171 196 198 195 204 215 215 223 234 239 243 247 249
193 217 269 1 336 313 242 258 293 307 261 256 256 246 230 235 217 214 201 176 181 154 148 142 150 150 154 148 147 157 155 149 145 147 157 159 164 189 197 195 201 211 222 227 230 235 244 246 251
193 254 272 312 1 325 245 273 305 310 264 260 257 255 256 238 203 198 178 163 156 144 136 130 140 143 131 125 125 145 145 141 140 146 158 168 175 190 187 197 200 200 222 226 228 245 252 256 261
235 258 274 285 330 308 268 277 294 292 284 272 267 266 254 268 265 256 154 150 144 139 139 135 135 138 134 132 130 130 129 131 141 153 169 173 178 191 188 198 199 197 208 216 224 239 255 264 270
225 246 284 302 326 297 270 280 289 287 276 268 263 252 233 237 271 44 102 131 131 133 145 142 138 132 143 136 141 150 145 134 145 160 162 173 186 195 188 198 201 198 203 210 220 249 251 262 276
206 254 297 314 336 310 296 288 287 284 270 264 262 250 232 224 200 138 119 121 141 151 155 162 159 155 149 138 140 142 140 143 143 147 126 145 199 200 200 199 199 199 203 208 215 225 253 262 253
261 261 287 301 315 284 301 280 258 251 274 298 281 258 246 224 216 191 175 169 173 183 183 178 182 180 164 148 143 141 145 168 177 179 154 62 282 195 193 195 195 204 213 218 228 226 233 243 246
275 300 279 277 284 284 310 278 253 246 255 264 249 224 226 215 217 204 197 184 191 208 197 197 180 175 165 163 163 162 172 182 201 185 153 202 236 210 188 198 200 199 211 224 228 228 238 238 240
282 315 279 269 260 263 250 252 259 233 252 249 234 221 225 211 200 194 196 186 164 155 163 173 156 163 165 172 173 178 189 191 180 176 189 211 224 239 212 206 207 208 215 227 233 234 237 238 243
252 266 235 221 234 245 238 238 254 216 239 236 222 214 209 192 182 178 163 140 115 100 116 154 155 165 169 176 183 187 193 195 190 200 208 230 249 249 222 216 216 222 225 227 231 230 236 239 242
275 266 278 246 236 250 151 241 252 257 259 255 248 220 200 174 167 157 148 147 135 131 144 167 166 174 177 182 191 194 199 201 207 218 221 230 243 253 245 231 226 227 229 233 234 234 238 241 241
240 260 251 269 272 283 234 246 251 37 327 299 285 251 199 180 178 173 172 174 165 158 181 190 190 195 193 196 200 204 204 207 214 220 225 233 244 255 257 246 241 240 238 237 236 241 244 244 245
206 215 285 266 275 274 258 267 271 193 276 273 253 220 196 194 205 205 196 200 200 204 215 215 201 213 218 219 214 217 216 215 221 225 228 234 236 242 243 238 238 240 238 239 240 243 246 246 249
277 172 196 221 253 264 268 260 261 226 218 179 199 221 226 230 232 240 249 259 255 251 230 204 203 210 225 224 220 220 224 224 227 231 234 236 240 237 237 239 237 241 244 244 243 246 250 248 249
192 198 220 233 259 261 272 258 179 244 242 215 215 228 236 237 238 241 253 266 264 277 229 224 222 210 233 240 232 224 229 228 229 233 240 243 244 236 234 241 244 248 251 249 246 248 252 251 253
239 222 206 238 248 250 271 270 109 245 261 244 244 246 252 251 249 249 253 257 260 264 261 249 249 245 257 255 247 240 238 234 242 246 247 246 246 246 243 242 244 248 250 250 248 249 249 251 254
Height
1511 1512 1513 1516 1515 1510 1504 1502 1502 1505 1506 1508 1509 1508 1505 1505 1506 1511 1510 1509 1510 1512 1514 1515 1517 1519 1520 1522 1523 1525 1526 1528 1529 1530 1531 1532 1533 1534 1535 1536 1536 1537 1538 1538 1539 1539 1540 1540 1541
1511 1512 1515 1515 1509 1505 1501 1501 1504 1505 1508 1510 1510 1509 1507 1507 1508 1508 1508 1509 1510 1512 1513 1514 1516 1518 1520 1521 1523 1524 1526 1527 1529 1530 1531 1532 1533 1534 1535 1535 1536 1537 1538 1538 1539 1540 1540 1541 1541
1511 1512 1515 1512 1506 1501 1500 1501 1504 1507 1509 1509 1509 1509 1508 1508 1508 1508 1508 1509 1510 1512 1513 1514 1516 1517 1519 1521 1522 1524 1525 1527 1528 1529 1530 1531 1532 1533 1534 1535 1536 1537 1537 1538 1539 1540 1540 1541 1541
1511 1514 1514 1510 1505 1503 1502 1504 1506 1507 1508 1509 1508 1507 1507 1508 1508 1508 1507 1509 1510 1511 1513 1514 1515 1517 1518 1520 1522 1523 1525 1526 1528 1529 1530 1531 1532 1533 1534 1535 1535 1536 1537 1538 1538 1539 1540 1540 1541
1511 1512 1510 1508 1505 1504 1505 1506 1507 1506 1505 1506 1507 1505 1506 1507 1506 1506 1507 1508 1510 1511 1512 1513 1515 1516 1517 1519 1521 1522 1524 1525 1527 1528 1530 1530 1531 1532 1533 1534 1535 1536 1536 1537 1538 1538 1539 1540 1541
1512 1509 1507 1505 1503 1504 1505 1507 1507 1505 1505 1506 1506 1504 1504 1505 1505 1506 1507 1508 1509 1510 1511 1512 1514 1515 1517 1518 1520 1521 1523 1524 1525 1527 1528 1530 1530 1531 1532 1533 1534 1535 1536 1536 1537 1538 1539 1539 1540
1511 1507 1505 1504 1504 1503 1505 1506 1505 1503 1503 1504 1504 1503 1503 1504 1504 1505 1505 1507 1508 1509 1510 1511 1513 1514 1515 1517 1518 1520 1521 1523 1524 1526 1527 1528 1529 1530 1531 1532 1533 1534 1535 1535 1536 1537 1537 1538 1539
1510 1508 1506 1504 1503 1502 1505 1505 1505 1504 1502 1503 1503 1501 1501 1502 1502 1503 1504 1505 1506 1507 1509 1510 1511 1512 1514 1515 1517 1518 1520 1522 1524 1525 1526 1527 1528 1529 1530 1531 1532 1533 1533 1534 1535 1536 1536 1537 1538
1510 1509 1505 1504 1503 1502 1504 1504 1504 1502 1502 1501 1501 1500 1500 1500 1501 1502 1503 1504 1505 1506 1507 1508 1509 1510 1512 1514 1515 1517 1519 1521 1522 1524 1525 1526 1527 1528 1529 1529 1530 1531 1532 1533 1534 1534 1535 1536 1536
1509 1505 1503 1505 1504 1503 1503 1503 1502 1501 1500 1499 1499 1498 1498 1498 1499 1500 1501 1502 1503 1504 1505 1506 1507 1508 1510 1512 1513 1515 1517 1519 1521 1522 1523 1524 1525 1526 1527 1528 1529 1530 1531 1532 1532 1533 1534 1534 1535
1508 1505 1505 1505 1505 1504 1503 1501 1501 1499 1497 1497 1496 1497 1497 1497 1498 1499 1500 1500 1500 1502 1503 1504 1505 1507 1508 1509 1511 1513 1515 1517 1519 1520 1521 1522 1523 1524 1525 1526 1527 1528 1529 1530 1531 1531 1532 1533 1533
1508 1506 1506 1505 1505 1504 1502 1500 1500 1498 1497 1496 1495 1495 1495 1496 1497 1498 1498 1498 1499 1500 1501 1502 1504 1505 1505 1507 1508 1511 1512 1514 1516 1518 1519 1520 1521 1522 1523 1524 1525 1526 1527 1528 1529 1529 1530 1530 1531
1507 1506 1506 1505 1504 1503 1502 1500 1500 1497 1495 1495 1494 1494 1494 1494 1495 1496 1496 1497 1497 1498 1499 1500 1501 1502 1503 1504 1506 1508 1510 1512 1513 1515 1516 1518 1519 1520 1521 1522 1523 1524 1525 1526 1527 1527 1528 1528 1529
1506 1506 1505 1504 1503 1502 1501 1499 1499 1496 1495 1494 1493 1493 1493 1494 1494 1494 1494 1495 1495 1496 1498 1498 1499 1500 1501 1502 1503 1506 1508 1510 1511 1513 1514 1516 1517 1518 1519 1520 1521 1522 1523 1524 1524 1525 1526 1526 1526
1507 1505 1503 1502 1502 1501 1500 1497 1496 1495 1494 1493 1492 1492 1492 1492 1492 1492 1492 1492 1493 1495 1496 1496 1497 1497 1499 1500 1501 1503 1505 1507 1508 1510 1512 1514 1515 1516 1517 1518 1519 1520 1520 1521 1522 1522 1523 1523 1523
1505 1502 1500 1500 1501 1500 1500 1493 1493 1494 1494 1492 1491 1491 1490 1490 1491 1491 1491 1491 1491 1493 1493 1494 1495 1496 1496 1498 1499 1501 1503 1505 1507 1508 1510 1512 1513 1514 1515 1516 1517 1517 1518 1518 1519 1520 1520 1521 1521
1501 1500 1498 1499 1500 1500 1498 1493 1493 1493 1492 1491 1490 1490 1489 1489 1489 1489 1489 1490 1491 1491 1492 1493 1494 1494 1495 1497 1498 1501 1502 1503 1505 1507 1508 1510 1511 1511 1512 1513 1514 1515 1515 1516 1516 1517 1517 1518 1518
1501 1499 1498 1497 1499 1499 1497 1494 1493 1492 1491 1490 1490 1489 1488 1488 1488 1488 1488 1489 1490 1491 1492 1493 1493 1493 1494 1495 1496 1498 1500 1501 1503 1505 1506 1507 1508 1509 1510 1511 1512 1512 1513 1513 1514 1514 1514 1515 1515
1501 1500 1498 1498 1501 1499 1495 1493 1491 1490 1490 1489 1489 1488 1488 1488 1488 1488 1488 1489 1489 1490 1491 1492 1493 1493 1493 1494 1495 1497 1498 1500 1502 1503 1503 1504 1505 1506 1508 1509 1509 1510 1510 1511 1511 1512 1512 1512 1512
1501 1500 1499 1500 1501 1499 1494 1491 1488 1488 1488 1488 1488 1487 1487 1487 1487 1487 1487 1487 1487 1489 1489 1491 1491 1492 1493 1493 1495 1496 1497 1498 1500 1500 1501 1502 1503 1504 1505 1506 1507 1507 1507 1508 1508 1509 1509 1509 1510
1501 1500 1500 1502 1501 1499 1495 1485 1484 1486 1487 1487 1487 1486 1486 1486 1486 1486 1486 1487 1487 1488 1489 1490 1490 1490 1491 1492 1493 1494 1496 1496 1497 1498 1498 1499 1500 1501 1502 1503 1504 1504 1505 1505 1506 1506 1507 1507 1507
1500 1503 1503 1503 1498 1493 1496 1487 1479 1482 1484 1484 1485 1485 1485 1485 1485 1485 1486 1485 1486 1486 1486 1487 1488 1488 1489 1491 1491 1493 1494 1495 1496 1496 1496 1498 1498 1499 1499 1500 1501 1501 1502 1503 1503 1503 1504 1504 1504
1503 1505 1504 1502 1498 1496 1494 1491 1478 1482 1481 1480 1482 1483 1484 1484 1484 1485 1485 1485 1485 1485 1485 1486 1486 1487 1488 1489 1490 1492 1493 1494 1494 1494 1495 1496 1495 1496 1497 1498 1498 1499 1499 1500 1500 1500 1501 1501 1501
1507 1505 1503 1501 1497 1494 1492 1489 1477 1477 1478 1478 1481 1482 1483 1483 1483 1483 1484 1484 1484 1485 1485 1486 1486 1487 1488 1488 1489 1490 1491 1492 1492 1493 1493 1493 1494 1494 1494 1495 1495 1496 1496 1497 1497 1497 1498 1498 1498
1505 1500 1497 1494 1492 1485 1494 1491 1479 1476 1479 1480 1481 1481 1482 1482 1482 1482 1482 1483 1483 1484 1484 1485 1485 1486 1487 1487 1488 1489 1490 1490 1490 1491 1491 1491 1491 1491 1491 1492 1493 1493 1493 1494 1494 1494 1494 1494 1494
1505 1501 1499 1495 1487 1482 1492 1485 1474 1479 1481 1481 1481 1481 1481 1481 1481 1482 1482 1483 1483 1483 1484 1484 1484 1484 1485 1486 1486 1487 1487 1488 1489 1489 1489 1489 1489 1489 1489 1489 1489 1490 1490 1491 1491 1491 1491 1491 1491
1503 1502 1504 1500 1499 1493 1477 1477 1474 1478 1479 1480 1480 1480 1480 1480 1480 1481 1481 1482 1482 1482 1483 1483 1483 1483 1483 1483 1484 1485 1485 1486 1486 1487 1487 1487 1487 1486 1486 1486 1486 1486 1487 1487 1487 1487 1487 1487 1487
1507 1505 1505 1502 1496 1485 1474 1474 1470 1473 1475 1478 1479 1480 1480 1480 1480 1480 1480 1480 1480 1481 1481 1481 1481 1481 1482 1482 1482 1483 1483 1484 1484 1484 1484 1484 1484 1483 1483 1483 1483 1483 1483 1483 1483 1483 1483 1483 1483
1507 1507 1503 1500 1497 1489 1479 1470 1470 1472 1475 1476 1478 1479 1479 1479 1479 1478 1478 1478 1479 1479 1479 1479 1479 1479 1480 1480 1480 1481 1481 1481 1481 1481 1481 1481 1481 1481 1480 1480 1480 1479 1479 1479 1479 1479 1479 1480 1479
1503 1502 1502 1500 1498 1497 1488 1475 1472 1474 1475 1476 1476 1477 1477 1477 1477 1477 1477 1477 1477 1477 1477 1477 1477 1477 1477 1478 1478 1478 1478 1478 1478 1478 1478 1478 1478 1477 1477 1476 1476 1476 1476 1476 1475 1475 1475 1475 1475